Cloud_Cover
4 4 0 0 0 0 0 0 0 0 0 0 0 0 0 0 0 0 0 0 0 0 0 0 0 0 0 0 0 0 0 0 0 0 0 0 0 0 8 8 16 16 0 0 4 8 0 0 0 4 0 0 0 0 0 0 0 8 8 8 16 16 12 8 4 0 0 0 0 0 0 0 0 0 0 0 0 0 0 0 0 0 0 0 0 0 0 0 0 0 0 0 0 0 0 0 0 0 0 0 0 0 0
8 8 4 0 0 0 0 0 0 0 0 0 0 0 0 0 0 0 0 0 0 0 0 0 0 0 0 0 0 0 0 0 0 0 0 0 0 0 0 0 4 4 0 0 8 16 0 0 4 4 0 0 0 0 0 0 0 4 8 8 8 8 12 4 0 0 0 0 0 0 0 0 0 0 0 0 0 0 0 0 0 0 0 0 0 0 0 0 0 0 0 0 0 0 0 0 0 0 0 0 0 0 0
20 20 4 0 0 0 0 0 0 0 0 0 0 0 0 0 0 0 0 0 0 0 0 0 0 0 0 0 0 0 0 0 0 0 0 0 0 0 0 0 0 0 0 0 12 20 0 0 4 4 0 0 0 0 0 0 0 0 4 4 4 4 4 0 0 0 0 0 0 0 0 0 0 0 0 0 0 0 0 0 0 0 0 0 0 0 0 0 0 0 0 0 0 0 0 0 0 0 0 0 0 0 0
28 24 8 0 0 0 0 0 0 0 0 0 0 0 0 0 0 0 0 0 0 0 0 0 0 0 0 0 0 0 0 0 0 0 0 0 0 0 0 0 0 0 0 0 4 12 12 8 4 4 0 0 0 0 0 0 0 0 0 0 0 0 0 0 0 0 0 0 0 0 0 0 0 0 0 0 0 0 0 0 0 0 0 0 0 0 0 0 0 0 0 0 0 0 0 0 0 0 0 0 0 0 0
44 24 0 0 0 0 0 0 0 0 0 0 0 0 0 0 0 0 0 0 0 0 0 0 0 0 0 0 0 0 0 0 0 0 0 0 0 0 0 0 0 0 0 0 0 12 36 8 0 0 0 0 0 0 0 0 0 0 0 0 0 0 0 0 0 0 0 0 0 0 0 0 0 0 0 0 0 0 0 0 0 0 0 0 0 0 0 0 0 0 0 0 0 0 0 0 0 0 0 0 0 0 0
28 20 0 0 0 0 4 4 0 0 0 0 0 0 0 0 8 12 0 0 0 0 0 0 0 0 0 0 0 0 0 0 0 0 0 0 0 0 0 0 0 0 0 0 0 8 48 24 20 16 0 0 0 0 0 0 0 0 0 0 0 0 0 0 0 0 0 0 0 20 92 20 0 0 0 0 0 0 0 0 0 0 0 0 0 0 0 0 0 0 0 0 0 0 0 0 0 0 0 0 0 0 0
32 20 0 0 8 20 12 12 8 4 0 0 0 0 0 0 0 0 0 0 0 0 0 0 0 0 0 0 0 0 0 0 0 0 0 0 0 0 0 0 0 0 0 0 0 12 48 20 8 4 0 0 0 0 0 0 0 0 0 0 0 0 0 0 0 0 0 0 0 16 68 64 32 0 0 0 0 0 0 0 0 0 0 0 0 0 0 0 0 0 0 0 0 0 0 0 0 0 0 0 0 0 0
8 0 0 4 16 20 16 4 0 0 0 0 0 0 0 0 0 0 0 0 0 0 0 0 0 0 0 0 0 0 0 0 0 0 0 0 0 0 0 0 0 0 0 0 0 8 40 24 12 4 0 0 0 0 0 0 0 0 0 0 0 0 0 0 0 0 0 0 0 20 92 24 0 0 0 0 0 0 0 0 0 0 0 0 0 0 0 0 0 0 0 0 0 0 0 0 0 0 0 0 0 0 0
0 8 20 20 20 20 16 4 0 0 0 0 0 0 0 0 0 0 0 0 0 0 0 0 0 0 0 0 0 0 0 0 0 0 0 0 0 0 0 0 0 0 0 0 0 4 20 20 8 0 0 0 0 0 0 0 0 0 0 0 0 0 0 0 0 0 0 0 0 0 0 48 32 4 8 0 0 0 0 0 0 0 0 0 0 0 0 0 0 0 0 0 0 0 0 0 0 0 0 0 0 0 0
20 24 32 32 28 20 0 0 0 0 0 0 0 0 0 0 0 0 0 0 0 0 0 0 0 0 0 0 0 0 0 0 0 0 0 0 0 0 0 0 0 0 0 0 0 0 4 20 12 0 0 0 0 0 0 0 0 0 0 0 0 0 0 0 0 0 0 0 0 0 0 40 44 48 96 24 0 0 0 0 0 0 0 0 0 0 0 0 0 0 0 0 0 0 0 0 0 0 0 0 0 0 0
24 32 28 28 16 4 0 0 0 0 0 0 0 0 0 0 0 0 0 0 0 0 0 0 0 0 0 0 0 0 0 0 0 0 0 0 0 0 0 0 0 0 0 0 0 0 0 20 16 4 0 0 0 0 0 0 0 0 0 0 0 0 0 0 0 0 0 0 0 0 0 0 40 84 92 48 20 0 0 0 0 0 0 0 0 0 0 0 0 0 0 0 0 0 0 0 0 0 0 0 0 0 0
32 28 24 20 8 0 0 0 0 0 0 0 0 0 0 0 0 0 0 0 0 0 0 0 0 0 0 0 0 0 0 0 0 0 0 0 0 0 0 0 0 0 0 0 0 0 0 8 8 4 0 0 0 0 0 0 0 0 0 0 0 0 0 0 0 0 0 0 0 0 0 0 0 16 68 92 48 0 0 0 0 0 0 0 0 0 0 0 0 0 0 0 0 0 0 0 0 0 0 0 0 0 0
36 20 0 0 0 0 0 0 0 0 0 0 0 0 0 0 0 0 0 0 0 0 0 0 0 0 0 0 0 0 0 0 0 0 0 0 0 0 0 0 0 0 0 0 0 0 0 8 8 4 4 0 0 0 0 0 0 0 0 0 0 4 0 0 0 0 0 0 0 0 0 0 4 20 72 92 52 8 0 0 0 0 0 0 0 0 0 0 0 0 0 0 0 0 0 0 0 0 0 0 0 0 0
20 4 0 0 0 0 0 0 0 0 0 0 0 0 0 0 0 0 0 0 0 0 0 0 0 0 0 0 0 0 0 0 0 0 0 0 0 0 0 0 0 0 0 0 0 0 4 20 20 8 8 4 0 0 0 0 0 0 0 0 0 0 8 0 0 0 0 0 0 0 0 0 8 36 84 92 68 36 4 0 0 0 0 0 0 0 0 0 0 0 0 0 0 0 0 0 0 0 0 0 0 0 0
0 0 0 0 0 0 0 0 0 0 0 0 0 0 0 0 0 0 0 0 0 0 0 0 0 0 0 0 0 0 0 0 0 0 0 0 0 0 0 0 0 0 0 4 4 4 8 20 20 16 16 16 8 0 0 0 0 0 0 0 0 0 8 0 0 0 4 0 0 0 0 0 0 16 64 80 64 36 16 4 0 0 0 0 0 0 0 0 0 0 0 0 0 0 0 0 0 0 0 0 0 0 0
4 0 0 0 0 0 0 0 0 0 0 0 0 0 0 0 0 0 0 0 0 0 0 0 0 4 4 8 4 0 0 0 0 0 0 0 0 0 0 0 0 0 0 8 12 16 8 20 20 16 12 16 12 4 0 0 0 0 0 0 0 0 0 0 0 0 8 12 16 12 0 0 0 0 0 44 48 32 20 12 8 4 0 0 0 0 0 0 0 0 0 0 0 0 0 0 0 0 0 0 0 0 0
4 0 0 0 0 0 0 0 0 0 0 0 0 0 0 0 0 0 0 0 0 0 0 0 0 4 8 20 12 8 8 0 0 0 0 0 0 0 0 0 0 0 0 4 24 40 28 20 20 16 8 12 12 8 0 0 0 0 0 0 0 0 0 0 0 0 0 20 20 12 0 0 0 0 0 36 28 24 64 40 20 8 0 0 0 0 0 0 0 0 0 0 0 0 0 0 0 0 0 0 0 0 0
12 0 0 0 0 0 0 0 0 0 0 0 0 0 0 0 0 0 0 0 0 0 0 0 0 0 8 16 12 8 16 8 4 4 4 4 0 0 0 0 0 0 0 0 24 48 48 36 28 16 12 12 8 8 4 8 4 0 0 0 0 0 0 0 0 0 0 0 0 4 12 20 12 0 0 36 48 64 80 60 28 8 0 0 0 0 0 0 0 0 0 0 0 0 0 0 0 0 0 4 4 0 0
24 0 0 0 0 0 0 0 0 0 0 0 0 0 0 0 0 0 0 0 0 0 0 0 0 4 8 8 12 16 20 16 8 8 8 8 8 0 0 0 0 0 0 0 8 24 52 48 36 20 16 12 8 4 4 8 8 0 0 0 0 0 0 0 0 0 0 0 0 8 32 36 20 0 0 0 24 48 52 44 32 24 28 8 0 0 0 0 0 0 0 0 0 0 0 0 0 0 4 8 8 4 0
48 20 12 8 4 4 4 0 4 4 0 0 0 0 0 0 0 0 0 0 0 0 0 0 4 8 8 8 12 16 16 12 8 8 8 12 8 4 0 0 0 0 0 0 0 8 28 24 20 12 8 8 4 0 0 8 8 8 4 4 4 0 0 0 0 0 0 0 0 4 20 12 8 0 0 0 0 8 36 36 36 40 44 20 4 0 0 0 0 0 0 0 0 0 0 0 0 0 0 4 4 4 4
56 36 24 20 12 12 16 16 12 8 0 0 0 0 0 0 0 0 0 0 0 0 0 0 0 4 4 4 8 8 12 8 8 8 8 8 12 16 8 8 4 0 0 0 0 4 8 4 4 4 4 4 0 0 0 0 4 4 8 8 8 4 0 0 0 0 0 0 0 0 0 0 0 0 0 0 0 12 48 20 24 36 36 36 20 8 0 0 0 0 0 0 0 0 0 0 0 0 4 4 4 4 4
36 16 8 8 8 8 8 8 8 4 0 0 0 0 4 0 0 0 0 0 0 0 0 0 0 0 0 0 0 4 4 0 0 0 0 4 12 20 20 12 4 0 0 0 0 0 0 0 0 0 0 0 0 0 0 0 0 0 4 4 4 4 8 0 0 0 0 0 0 0 0 0 0 0 0 0 8 36 84 20 20 48 80 76 52 24 8 0 0 0 0 0 0 0 0 0 0 0 4 4 4 0 4
8 4 0 0 0 0 0 0 0 0 0 0 0 0 4 0 0 0 0 0 0 0 0 0 0 0 0 0 0 0 0 0 0 0 0 4 8 12 16 4 0 0 0 0 0 0 0 0 8 8 0 0 0 0 0 0 0 0 0 0 0 0 4 0 0 0 0 0 0 0 0 0 0 0 0 0 4 32 96 20 8 36 96 88 60 28 20 8 4 0 0 4 4 4 0 4 0 0 0 0 4 4 4
0 0 0 0 0 0 0 0 0 0 0 0 0 0 4 0 0 0 0 0 0 0 0 0 0 0 0 0 0 0 0 0 0 0 0 0 0 0 4 0 0 4 4 0 0 0 0 0 8 20 20 8 0 0 0 0 0 0 0 0 0 0 0 0 0 0 0 0 0 0 0 0 0 0 0 0 8 28 52 20 8 16 60 48 40 36 28 8 0 0 4 8 8 4 8 4 4 0 0 0 4 4 8
0 0 0 0 0 0 4 12 8 0 0 0 0 0 4 0 0 0 0 0 0 0 0 0 0 0 0 0 0 0 0 0 0 0 0 0 0 0 0 0 0 4 4 0 0 0 0 0 4 8 20 20 16 8 0 0 0 0 0 0 0 0 0 0 0 0 0 0 0 0 0 0 0 0 4 0 4 8 8 4 8 12 8 20 24 24 20 4 0 0 4 4 8 8 8 8 4 4 0 0 0 4 4
0 0 4 4 12 24 36 36 20 0 0 0 0 0 4 4 0 0 0 0 0 0 0 0 0 0 0 0 0 0 0 0 0 0 0 0 0 0 0 0 0 0 0 0 0 0 0 0 0 0 4 4 4 0 0 0 0 0 0 0 0 0 0 0 0 0 0 0 0 0 0 0 0 0 0 0 0 0 0 0 0 4 4 4 4 8 8 0 0 0 4 4 4 8 8 8 4 0 0 0 0 0 0
0 0 4 8 24 36 40 36 16 4 4 4 4 4 4 4 4 4 4 0 0 0 0 0 0 0 0 0 0 0 0 0 0 0 0 0 0 0 0 0 0 0 0 0 0 0 0 0 0 0 0 0 0 0 0 0 0 0 0 0 0 0 0 0 0 0 0 0 0 0 0 0 0 0 0 0 0 4 20 4 0 0 0 0 0 0 8 0 0 0 4 4 4 4 4 4 4 4 0 0 0 0 4
0 0 0 16 32 36 20 8 4 4 4 0 4 4 4 4 4 4 8 4 0 0 0 8 8 8 8 4 4 8 0 0 0 0 0 0 0 0 0 0 0 0 0 0 0 0 0 0 0 0 0 0 0 0 0 0 0 0 0 0 0 0 0 0 0 0 0 0 0 0 0 0 0 0 0 0 8 36 88 36 8 0 0 0 0 0 0 0 0 0 0 0 0 0 0 0 0 0 0 0 0 0 4
0 8 20 24 24 20 8 4 4 0 0 0 0 0 0 4 4 8 8 8 8 8 8 12 16 12 12 8 8 8 8 0 0 0 0 0 0 0 0 0 0 0 0 0 0 0 0 0 0 0 0 0 0 0 0 0 0 0 0 0 0 0 0 0 0 0 0 0 0 0 0 0 0 0 0 0 8 20 44 44 20 0 0 0 0 0 0 0 0 0 0 0 0 0 0 0 0 0 0 0 0 0 4
8 8 12 16 12 8 4 0 0 0 0 0 0 0 0 0 4 8 8 8 16 20 16 16 16 20 16 12 12 12 8 0 0 0 0 0 0 0 0 0 0 0 0 0 0 0 0 0 0 0 0 0 0 0 0 0 0 0 0 0 0 0 0 0 0 0 0 0 0 0 0 0 0 0 0 0 0 0 0 0 0 0 0 12 8 0 0 0 0 0 0 0 4 4 0 4 4 4 0 4 4 4 4
16 8 8 12 8 0 0 0 0 0 0 0 0 0 0 0 0 0 4 4 8 20 20 20 20 16 16 8 8 8 0 4 8 4 0 0 0 0 0 0 0 0 0 0 0 0 0 0 0 0 0 0 0 0 4 8 8 8 4 0 0 0 0 0 0 0 0 0 0 0 0 0 0 0 0 0 0 0 0 0 8 12 0 0 20 32 0 0 0 0 0 0 4 4 4 4 4 4 4 4 4 4 4
0 0 0 4 4 0 0 0 0 0 0 0 0 0 0 0 0 0 0 0 4 8 8 8 8 8 8 8 4 0 4 8 20 24 24 20 8 0 0 0 0 0 0 0 0 0 0 0 0 0 0 0 0 0 0 4 8 8 8 4 0 0 0 0 0 0 0 0 0 0 0 0 0 0 0 0 0 0 0 0 0 0 0 0 0 8 32 8 0 0 0 8 8 4 4 4 4 4 4 4 4 4 4
0 4 12 4 0 0 0 0 0 0 0 0 0 0 0 0 0 0 0 0 0 0 0 0 0 0 0 12 20 24 24 24 28 32 32 24 12 0 0 0 0 0 0 0 0 0 0 0 0 0 0 0 4 4 0 4 8 8 12 8 4 0 0 0 0 0 0 0 0 0 0 0 0 0 0 0 0 0 0 0 0 0 0 0 0 0 0 0 0 0 4 16 16 12 8 8 8 8 4 4 4 4 8
0 8 12 4 0 0 0 0 0 0 0 0 0 0 0 0 0 0 0 0 0 0 0 0 0 0 8 20 32 36 40 36 32 32 28 20 8 0 0 0 0 0 0 0 0 0 0 0 0 0 0 0 0 4 4 4 8 12 16 16 8 4 0 0 0 0 0 0 0 0 0 0 0 0 0 0 0 0 0 0 0 0 4 4 4 0 0 0 0 4 16 60 60 48 48 16 8 4 8 8 4 4 4
4 8 0 0 0 0 0 0 0 0 0 0 0 0 0 0 0 0 0 0 0 0 0 0 0 0 8 12 24 36 40 32 32 32 32 28 16 4 0 0 0 0 0 0 0 0 0 0 0 0 4 0 0 4 4 8 8 8 16 16 16 8 0 0 0 0 0 0 0 0 0 0 0 0 0 0 4 8 8 0 0 0 4 8 8 8 4 4 4 4 0 8 12 24 36 20 8 4 4 8 8 8 4
0 0 8 4 0 0 0 0 0 0 0 0 0 0 0 0 0 0 0 0 0 0 0 0 0 0 0 0 8 16 20 20 20 28 36 16 4 0 0 0 0 0 0 0 0 0 0 0 4 4 0 0 0 0 4 8 8 8 12 12 8 8 0 0 0 0 0 0 0 0 0 0 0 0 0 4 8 20 24 8 4 4 8 8 8 8 8 8 8 8 8 12 12 12 8 8 8 8 8 8 8 8 8
0 4 8 0 0 0 0 0 0 0 0 0 0 0 0 0 0 0 0 0 0 0 0 0 0 0 0 0 4 4 4 8 12 12 8 0 0 0 0 0 0 0 0 0 0 0 0 0 0 0 0 0 0 0 0 4 4 8 8 8 4 4 0 0 0 0 0 0 0 0 0 0 0 0 0 0 8 20 24 20 12 8 8 8 8 8 8 8 8 8 16 16 16 12 20 20 16 8 4 8 12 20 16
8 8 4 0 0 0 0 0 0 0 0 0 0 0 4 0 0 0 0 0 0 0 0 0 0 0 0 0 0 0 0 0 0 0 0 0 0 0 0 0 0 0 0 0 0 0 0 0 0 0 0 0 0 0 0 0 0 0 0 0 0 0 0 0 0 0 0 0 0 0 0 0 0 0 0 0 4 8 20 20 20 16 8 8 8 8 8 8 8 8 12 20 20 12 12 20 16 8 8 8 16 28 40
12 20 12 4 0 0 0 0 0 0 0 0 4 8 8 8 8 4 8 0 0 0 0 0 4 4 4 4 0 0 0 0 0 0 0 0 0 0 0 0 0 0 0 0 0 0 0 0 0 0 0 0 0 0 0 0 0 0 0 0 0 0 0 0 0 0 0 0 0 0 0 0 0 0 0 4 8 12 20 32 32 28 28 16 8 8 8 8 8 8 8 16 20 20 20 16 20 20 16 16 12 16 20
24 36 28 8 0 0 0 0 0 0 0 8 8 12 16 20 12 8 12 8 8 8 8 8 12 12 12 12 12 8 8 8 8 8 8 4 0 0 0 0 4 4 12 8 8 4 0 0 0 0 0 0 0 0 0 0 0 0 0 0 0 0 0 0 0 0 0 8 4 0 0 0 0 0 0 8 8 12 20 36 44 44 44 28 16 8 8 8 8 8 8 8 20 24 24 28 28 28 24 20 24 20 8
36 48 44 20 8 4 0 0 0 4 12 16 16 20 20 20 20 20 20 20 16 16 20 24 32 32 24 20 20 20 16 20 20 20 12 8 8 8 8 8 12 16 20 20 20 12 0 0 0 0 0 0 0 0 0 0 0 0 0 0 0 0 4 4 4 8 8 8 8 4 0 0 0 4 4 8 8 8 16 36 44 44 44 28 20 12 8 8 8 8 8 12 20 28 24 36 40 36 28 32 32 24 20
52 52 48 36 20 12 4 4 8 12 20 20 20 24 28 24 28 32 36 32 28 24 24 36 44 48 36 32 24 20 20 20 20 20 20 20 20 20 20 20 20 20 28 28 24 20 8 8 8 8 4 0 0 0 0 0 0 0 0 0 4 8 8 8 8 8 8 8 4 0 0 0 4 8 8 8 8 8 8 20 28 36 28 20 16 12 8 8 8 8 12 12 16 20 28 36 40 40 40 44 40 36 24
64 64 52 40 24 12 4 4 8 8 20 20 20 20 24 28 36 40 48 48 44 36 28 36 48 48 48 36 36 36 24 24 24 24 24 32 32 28 32 28 24 24 28 28 20 16 12 8 8 8 8 8 4 4 0 0 0 0 4 4 8 12 12 12 8 8 8 0 0 0 0 0 8 8 8 8 8 8 8 8 12 16 8 8 8 8 8 8 8 8 12 12 12 20 28 40 44 44 48 36 40 44 36
64 52 48 36 24 12 0 0 4 8 20 20 20 20 20 20 32 44 56 56 56 52 48 44 48 56 60 48 44 44 40 36 36 36 32 32 28 24 20 24 20 16 16 16 12 8 8 8 8 8 8 8 8 8 8 8 8 8 8 8 12 12 12 12 8 4 0 0 0 0 4 8 8 8 8 8 8 8 8 8 8 8 8 8 8 8 8 8 8 8 12 12 16 20 28 36 36 36 32 28 36 44 36
56 48 36 28 20 8 0 0 4 8 16 20 20 20 16 12 20 36 48 60 64 64 64 48 48 56 64 64 60 56 56 48 48 44 40 36 28 24 20 20 20 16 12 8 8 8 8 8 8 8 8 8 8 8 12 12 12 12 12 12 12 12 12 8 4 0 0 0 0 4 8 8 8 8 8 8 8 8 8 8 8 8 8 8 8 8 8 8 12 12 12 12 16 24 32 32 32 32 28 36 44 44 40
48 36 24 16 8 8 0 0 4 8 20 24 24 20 16 12 12 20 36 52 64 68 68 60 56 56 64 84 88 84 80 72 60 48 36 36 32 32 28 24 20 16 8 8 8 8 8 8 8 8 12 12 12 12 12 12 12 12 12 12 8 4 4 0 0 0 0 0 0 4 8 8 8 8 8 8 8 8 8 8 8 8 8 8 8 8 12 12 12 12 12 12 16 20 24 28 36 36 36 48 48 44 44
36 32 20 12 8 8 4 4 8 16 24 32 36 36 32 20 20 24 32 40 52 64 76 76 72 68 68 68 80 96 96 84 80 72 44 48 52 48 28 20 40 52 32 20 12 8 8 8 12 12 12 12 12 12 8 8 8 8 8 8 0 0 0 0 0 0 0 0 0 0 8 8 8 8 8 8 8 8 8 8 8 12 12 12 8 8 12 12 12 12 12 12 16 20 20 28 36 44 44 56 56 48 40
20 24 24 12 8 8 4 4 8 20 28 44 52 56 48 36 36 36 36 40 48 60 64 84 92 84 72 60 60 64 84 64 80 92 84 88 88 84 80 80 84 92 80 68 44 20 8 12 12 12 12 12 8 8 0 0 0 0 0 0 0 0 0 0 0 0 0 0 0 0 4 8 8 8 8 8 8 8 8 12 12 16 16 16 16 16 20 16 12 12 16 16 20 20 20 32 44 52 60 64 60 52 48
28 20 16 8 0 0 0 0 8 20 32 40 52 60 48 52 52 52 44 40 48 64 64 88 96 92 92 72 60 52 60 56 64 80 96 96 96 96 96 92 84 84 96 92 64 32 12 12 12 8 8 4 0 0 0 0 0 0 0 0 0 0 0 0 0 0 0 0 0 0 0 0 0 0 0 8 4 4 8 8 12 12 16 20 20 20 20 20 20 20 20 16 16 20 28 36 48 60 64 60 56 56 52
64 56 36 8 0 0 0 0 8 16 20 28 40 48 52 60 64 68 56 68 72 76 92 92 92 92 92 92 76 60 60 60 64 80 96 80 72 76 96 60 40 36 40 44 32 16 12 12 12 8 0 0 0 0 0 0 0 0 0 0 0 0 0 0 0 0 0 0 0 0 0 0 0 0 0 0 0 0 0 8 8 8 8 16 20 20 24 24 24 24 20 20 20 20 24 36 44 56 64 64 60 56 56
40 36 8 0 0 0 0 0 4 12 16 20 28 44 48 52 60 64 60 68 64 64 92 96 88 80 92 88 68 52 52 56 64 72 96 76 76 80 64 60 48 36 8 8 8 8 12 12 8 8 0 0 0 0 0 0 0 0 0 0 0 0 0 0 0 0 0 0 0 0 0 0 0 0 0 0 0 0 0 0 8 8 8 12 16 20 20 20 24 28 28 20 20 20 20 20 20 32 44 36 36 44 56
8 8 0 4 4 4 4 8 8 12 20 20 20 24 36 40 44 48 56 48 48 64 92 92 92 88 76 76 72 64 48 60 68 80 92 92 92 88 64 60 56 44 28 8 4 8 16 20 12 8 8 8 8 8 8 8 4 0 0 0 0 0 0 0 0 0 0 4 8 12 8 8 4 0 0 0 0 0 0 0 0 4 8 12 12 12 12 16 20 20 20 16 16 16 16 16 16 16 20 20 20 28 40
0 8 8 8 16 20 24 32 24 20 16 12 8 8 16 32 40 44 36 36 48 48 48 80 92 92 92 92 92 80 52 48 64 80 68 68 68 72 68 60 52 44 20 8 8 8 4 20 16 8 8 8 20 24 12 12 16 12 8 12 12 8 0 0 0 0 0 0 8 24 52 56 44 20 0 0 0 0 0 0 0 0 4 8 12 12 12 12 16 16 16 16 16 16 16 16 16 16 16 16 20 24 28
0 0 0 0 0 8 12 16 12 8 0 0 0 0 8 24 32 32 20 24 28 32 48 60 80 92 92 92 92 84 64 52 64 72 64 64 64 60 64 56 48 44 48 28 8 0 0 0 8 12 16 24 48 64 44 36 36 36 36 60 60 48 28 8 0 0 8 8 0 8 28 20 32 52 72 28 20 20 0 0 0 0 0 8 8 12 12 12 16 16 16 16 16 16 16 16 16 16 16 16 20 20 24
0 0 0 0 0 0 0 0 0 0 0 0 0 0 0 0 0 0 0 8 8 16 20 36 64 92 92 84 72 64 64 52 52 64 64 60 52 56 68 72 64 52 52 44 24 12 20 16 36 56 60 88 96 96 96 96 96 96 96 96 92 84 72 64 56 48 36 32 20 8 4 0 8 20 36 80 96 84 40 8 0 4 4 8 8 12 12 16 16 16 16 16 16 16 16 16 16 16 16 28 24 20 20
0 0 0 0 0 0 0 0 0 0 0 0 0 0 0 0 0 4 8 4 0 0 0 4 32 64 84 64 76 92 96 96 96 96 96 96 88 80 96 68 60 52 48 44 36 32 36 48 60 72 96 96 96 96 96 96 96 96 96 96 96 96 92 80 80 80 64 52 48 36 20 20 20 16 20 36 56 72 64 40 36 32 16 12 12 12 16 16 16 16 16 16 16 16 16 16 20 20 20 36 32 20 20
0 0 0 0 0 0 0 0 0 0 0 0 0 0 0 8 12 12 12 8 4 0 0 0 0 16 68 16 8 36 88 92 92 92 96 96 96 96 96 96 92 76 60 56 68 76 64 64 72 84 96 96 96 96 96 96 96 96 96 96 96 96 96 96 96 96 96 84 68 60 60 48 40 32 32 48 52 56 60 56 52 48 40 24 16 12 16 16 16 16 16 16 16 20 20 24 32 36 36 24 20 20 20
0 0 0 0 0 0 0 0 0 0 0 0 4 4 8 8 8 8 8 4 0 0 0 0 0 0 0 0 0 4 12 60 72 76 88 92 96 96 96 96 96 96 96 96 96 96 96 92 72 64 88 92 92 92 96 96 96 96 96 96 96 96 96 96 96 96 96 96 92 84 84 76 68 64 52 72 72 64 64 52 48 48 52 44 32 20 16 16 16 16 16 16 16 20 24 28 32 36 36 28 24 24 20
0 0 0 0 0 0 0 4 8 8 12 12 12 12 8 4 0 0 0 0 0 0 0 0 0 0 0 0 0 0 8 52 60 52 60 76 88 96 96 96 96 96 96 96 96 96 96 92 80 64 56 64 64 68 92 96 96 96 96 96 96 96 96 96 96 96 96 96 96 96 96 96 96 96 96 96 96 92 76 64 60 52 48 48 40 36 24 20 20 16 16 16 20 20 36 36 32 32 36 40 36 32 28
0 0 0 4 4 8 12 12 12 12 12 8 8 8 0 0 0 0 0 0 0 0 0 0 0 0 0 0 0 0 0 16 32 52 92 96 96 96 96 96 96 96 96 96 96 96 96 96 88 72 60 56 48 40 52 80 92 92 88 92 96 96 96 96 96 96 96 96 96 96 96 96 96 96 96 96 96 96 96 80 80 84 64 60 52 48 52 36 24 20 24 28 36 40 56 48 44 48 56 64 60 48 44
0 4 8 12 12 12 12 8 8 8 8 4 0 0 0 0 0 0 0 0 0 0 0 0 0 0 0 0 0 0 0 0 8 28 64 80 92 92 92 96 96 96 92 92 92 88 92 96 96 92 64 64 64 52 28 48 64 68 44 68 88 96 96 96 96 96 96 96 96 96 92 96 96 96 92 92 92 96 96 96 96 92 80 84 80 72 72 48 36 32 36 56 64 64 72 64 60 64 88 80 64 56 52